Wind_Speed
32 32 32 31 29 27 27 26 24 21 17 15 13 11 11 10 10 9 9 9 9 8 8 7 5 4 4 6 8 9 10 10 9 12 13 10 7 6 6 7 10 11 12 16 19 18 14 13 7 1 3 3 4 2 2 2 1 2 2 2 2 2 0 2 6 6 6 7 9 10 10 11 9 6 5 6 11 13 12 11 10 11 10 9 9 8 5 3
31 32 32 31 30 28 27 26 26 23 19 15 13 11 10 10 10 9 8 8 8 8 8 8 7 6 5 6 6 7 8 9 13 15 9 4 4 4 6 7 8 9 10 15 18 14 8 9 5 6 4 1 2 2 1 1 3 4 2 3 2 1 4 5 8 9 7 9 10 9 11 11 8 6 4 6 11 12 12 11 10 12 10 9 8 6 4 5
31 32 32 32 31 29 27 27 27 24 20 16 13 11 10 9 9 9 8 8 9 9 8 8 8 8 7 6 6 5 5 8 13 8 2 3 4 4 6 7 9 9 10 14 17 16 11 10 6 10 2 3 3 2 2 2 4 4 2 3 2 2 7 9 11 11 8 11 12 11 12 11 9 6 4 7 12 11 11 9 9 11 10 9 8 7 6 8
31 31 31 31 31 29 28 27 27 26 22 17 13 10 9 9 8 8 8 9 9 10 10 9 9 9 8 7 5 3 5 8 4 2 5 5 4 5 7 8 9 9 10 15 16 15 10 10 7 7 5 1 4 1 3 4 2 4 3 3 4 2 8 9 11 11 8 10 12 12 13 12 10 6 5 9 10 9 8 9 10 11 10 10 9 8 8 8
32 31 31 31 31 30 28 27 27 26 23 18 13 9 9 8 8 8 8 9 9 10 11 11 11 10 8 6 2 0 5 4 5 5 5 6 4 4 6 6 9 8 11 13 11 12 8 5 7 0 4 4 4 4 4 7 4 3 7 5 3 5 9 9 10 9 9 12 13 13 13 11 10 7 5 8 8 7 8 10 11 11 10 10 9 8 8 9
32 31 31 31 30 30 28 27 26 26 24 19 13 8 7 7 7 7 8 8 9 11 12 12 13 10 7 5 2 3 6 3 8 4 6 6 3 3 5 5 8 7 10 11 4 6 5 1 3 2 1 2 3 2 6 11 6 2 8 8 5 8 9 9 9 8 9 13 14 11 11 11 11 9 7 9 10 9 9 10 11 11 11 11 10 9 8 8
33 32 30 30 30 29 29 27 26 26 24 19 12 8 6 5 6 7 7 8 9 11 12 13 13 11 8 3 2 5 8 2 8 6 6 4 2 2 4 6 7 7 11 11 4 2 4 2 0 2 3 4 4 5 7 9 9 4 7 8 8 10 9 10 9 9 10 12 14 10 10 12 12 10 8 11 11 10 10 9 10 11 11 11 10 9 7 8
32 32 31 30 29 29 28 27 26 25 24 19 12 7 5 4 5 6 7 8 10 12 12 13 13 12 9 2 4 7 4 5 8 5 5 4 3 3 5 10 13 13 11 8 4 0 2 5 3 5 3 5 4 5 7 5 6 6 7 8 8 9 10 11 9 10 11 11 13 12 12 12 13 11 10 12 11 10 10 9 9 9 10 10 9 8 7 7
32 32 31 29 29 28 28 27 25 25 24 20 12 7 4 3 4 6 7 8 10 12 13 15 13 13 11 3 8 6 3 7 5 3 3 4 7 9 9 11 13 10 6 7 7 3 3 5 6 5 4 8 3 5 7 2 5 6 7 8 8 9 9 10 10 10 10 8 9 12 13 13 13 12 10 11 11 10 9 9 8 9 9 9 8 7 8 7
31 31 31 29 28 28 27 26 25 24 24 20 12 7 3 3 4 5 7 8 10 12 14 16 14 13 11 7 9 3 4 2 4 4 3 6 7 6 3 5 7 5 5 7 7 8 5 5 9 4 3 7 3 6 7 2 4 6 7 8 8 9 8 9 10 11 10 8 10 11 12 12 11 8 7 9 10 10 9 8 8 8 9 8 7 7 7 6
30 30 30 29 27 27 27 26 24 23 24 20 13 7 4 3 3 5 6 8 10 12 15 17 16 13 11 11 8 2 3 2 3 3 3 4 5 8 6 6 8 7 6 6 8 10 5 6 7 4 3 4 3 8 7 3 5 6 6 7 8 8 8 10 10 10 9 8 9 9 10 9 7 6 8 10 10 10 10 8 8 7 8 7 7 8 7 5
29 29 30 28 27 26 26 25 23 23 23 20 13 7 5 3 4 5 6 8 9 11 15 18 18 14 11 11 3 6 2 2 2 1 1 4 6 7 6 7 9 10 9 8 9 8 6 3 1 2 6 4 3 6 5 4 5 4 3 5 8 7 7 9 8 9 8 8 7 5 7 7 6 9 11 11 10 10 10 8 7 6 7 6 6 7 7 5
29 29 29 28 27 26 26 25 22 22 22 20 13 8 5 4 4 4 5 7 8 12 15 18 19 13 11 6 7 5 2 2 1 3 1 5 6 7 7 7 9 9 9 7 6 5 5 6 4 5 7 2 2 5 4 6 6 5 5 2 4 5 6 8 8 9 9 8 7 3 4 6 8 11 12 11 11 10 9 8 7 6 7 6 4 7 8 4
30 29 28 27 26 25 26 24 21 21 21 19 13 8 6 5 5 5 6 7 8 12 14 18 20 11 7 2 8 4 1 2 5 4 2 2 2 7 6 7 9 8 6 7 8 8 7 11 10 5 5 5 5 5 4 5 5 4 5 2 2 1 5 7 7 8 8 8 7 2 2 6 9 11 12 11 11 9 8 9 7 6 6 5 4 6 6 5
30 29 28 26 25 25 25 24 20 19 20 18 12 8 6 6 6 6 8 9 9 12 15 19 19 9 5 3 6 4 6 7 4 3 2 6 3 7 8 7 8 7 6 7 6 5 6 10 8 4 8 9 5 3 2 3 3 0 2 2 4 2 4 7 6 6 7 9 9 3 2 7 10 11 12 11 11 9 8 8 8 6 6 6 5 5 5 6
30 28 27 25 24 24 25 23 19 19 19 17 12 8 7 7 7 9 10 10 11 12 12 14 14 11 6 1 6 4 8 5 2 4 2 2 2 7 6 5 7 6 5 4 3 4 8 8 5 5 7 6 4 2 1 1 0 2 2 3 4 3 4 6 6 6 7 9 9 4 1 5 10 11 11 11 11 9 7 8 8 7 6 6 5 5 5 5
30 28 26 24 24 24 25 22 18 18 18 15 11 7 7 7 8 10 11 13 15 14 12 14 16 11 5 0 4 5 3 2 2 1 0 5 5 3 4 5 6 5 3 3 3 5 8 6 3 4 4 3 0 1 2 2 3 3 5 5 4 4 4 5 6 7 6 6 7 6 3 5 11 11 11 12 10 9 7 8 8 7 6 6 6 5 5 5
30 28 25 24 24 24 24 21 17 17 18 15 9 6 7 7 10 12 14 15 13 13 14 15 15 9 2 3 3 1 3 3 2 1 0 2 3 3 2 4 3 3 3 3 2 3 4 3 1 2 2 2 2 3 4 5 6 2 4 3 4 5 4 5 7 7 7 5 6 8 6 8 12 11 11 12 11 8 7 8 7 7 6 5 6 6 6 5
30 28 26 25 25 24 24 21 15 16 17 13 7 6 7 8 10 11 15 14 9 9 8 5 7 5 1 2 1 2 3 2 1 3 2 0 2 3 3 5 3 3 3 1 1 2 2 3 3 0 3 4 6 5 6 11 5 3 4 3 4 5 3 6 8 7 7 6 2 3 5 9 12 11 11 11 10 8 7 7 6 6 6 5 6 6 6 6
30 28 26 26 25 24 24 19 13 15 16 14 11 7 6 6 6 6 10 11 10 10 8 4 4 5 2 1 1 2 4 4 4 4 1 1 2 3 4 5 2 3 2 2 1 2 3 1 2 2 3 3 6 7 6 3 3 5 4 4 2 4 4 8 9 6 5 4 5 6 6 10 11 11 11 11 10 8 8 8 7 7 7 5 6 7 7 6
31 29 27 26 26 26 23 17 13 13 15 17 14 6 2 2 2 3 4 8 13 12 9 8 7 7 4 3 4 2 4 7 6 2 3 3 4 2 5 4 3 4 2 5 1 1 2 1 1 3 7 7 5 4 6 7 5 5 4 6 3 4 5 8 9 7 4 1 4 1 2 7 10 10 11 11 10 9 9 9 8 9 8 7 7 8 8 7
31 30 28 27 26 26 23 15 11 11 13 14 9 5 5 9 6 6 5 7 13 11 7 7 7 6 4 4 3 2 7 6 6 6 6 3 6 4 4 3 5 2 1 5 3 3 2 1 4 9 10 7 6 7 8 6 5 5 3 4 2 4 4 7 9 9 4 1 2 2 2 5 9 9 10 10 9 8 9 10 8 8 8 7 7 8 8 8
31 30 29 27 26 27 22 13 8 8 11 11 5 4 9 9 9 10 7 7 10 8 8 8 7 8 7 6 6 6 10 8 3 7 7 3 7 2 4 2 3 4 4 4 6 2 1 3 8 9 7 5 4 5 5 3 2 2 0 2 2 2 2 3 7 8 6 2 3 3 4 4 8 8 8 8 8 8 8 10 9 9 8 7 7 8 9 9
30 30 29 27 28 26 20 13 8 5 8 8 5 8 10 10 11 12 6 7 9 6 8 9 8 10 4 3 4 8 8 4 2 4 7 4 6 2 4 2 0 3 1 3 3 1 4 7 7 7 5 4 4 4 6 3 2 2 2 1 3 1 3 3 5 3 4 4 3 4 3 3 5 5 7 6 5 6 7 8 9 9 8 7 6 8 9 9
30 30 28 28 28 26 20 13 7 6 7 6 6 9 10 11 10 10 5 5 8 5 8 8 6 7 3 3 4 8 7 2 2 2 6 2 7 4 3 2 2 4 4 6 5 3 5 5 4 6 5 2 3 2 4 5 4 2 4 7 6 3 7 6 8 3 1 3 1 2 2 3 4 3 5 6 5 6 5 6 7 8 8 7 6 7 7 8
30 29 29 27 27 27 17 6 6 12 11 4 8 10 11 11 9 8 3 5 7 5 7 7 6 6 4 4 8 7 7 5 4 2 2 2 5 3 3 3 2 3 6 5 1 2 3 4 4 5 7 5 2 2 2 3 4 3 3 4 0 10 11 7 7 5 2 1 2 1 1 3 5 2 6 4 2 7 6 5 7 6 6 7 6 6 6 7
29 29 29 26 25 26 14 6 13 16 8 6 10 11 11 10 9 6 3 5 6 5 6 6 5 6 6 5 8 6 3 2 5 3 3 0 2 4 3 3 2 1 2 3 2 1 3 3 5 4 6 4 2 2 2 3 2 4 6 7 8 13 11 2 6 5 2 2 4 4 3 2 4 4 8 8 3 3 4 3 5 6 6 6 7 8 7 7
29 28 29 26 22 18 11 11 16 13 7 10 11 10 10 10 8 4 3 4 3 4 4 4 4 3 5 5 7 8 4 1 4 4 5 2 2 5 5 4 2 3 2 1 2 2 3 3 4 4 4 2 4 5 8 6 4 7 9 9 10 10 7 5 5 1 3 2 2 4 3 3 3 4 5 8 5 4 6 5 2 4 8 5 5 9 8 8
29 27 27 28 21 11 10 14 13 10 10 12 11 10 10 9 5 3 4 4 2 3 2 3 3 5 6 5 7 8 6 5 4 3 4 3 4 4 6 5 5 3 1 0 0 2 5 6 4 4 1 4 7 7 9 8 6 8 9 6 7 6 5 5 4 1 0 3 1 1 2 2 3 2 4 5 2 2 5 6 6 6 3 7 5 7 8 7
28 27 26 28 20 11 12 14 11 10 11 10 11 12 9 6 3 5 4 3 2 4 4 3 4 9 10 8 9 9 9 7 4 3 4 4 5 5 2 1 5 5 1 1 1 3 4 2 1 2 2 5 7 5 6 7 7 8 8 5 3 3 3 4 4 2 2 3 5 4 4 3 2 2 2 1 2 5 0 1 4 9 4 7 6 5 8 7
27 26 25 26 22 14 12 9 5 8 10 11 13 11 7 4 4 5 5 3 3 4 6 5 6 9 12 11 9 10 10 8 6 6 5 5 6 5 4 4 3 1 1 2 1 2 3 3 1 3 4 2 3 4 3 7 8 5 2 2 2 1 3 3 3 1 1 5 6 4 6 6 3 3 3 2 6 9 6 4 4 5 6 4 5 4 7 7
27 25 24 23 20 16 13 8 9 12 10 12 12 7 5 4 5 6 6 4 3 4 5 6 7 7 10 11 9 10 10 7 6 7 6 7 7 5 5 4 2 1 0 1 2 1 1 2 1 2 2 1 2 2 3 5 4 1 1 2 2 1 2 3 3 3 2 1 2 1 3 5 3 2 3 5 9 9 5 6 8 8 5 5 4 2 4 6
27 26 22 16 15 16 15 12 12 12 10 11 9 4 4 5 6 8 8 4 2 4 3 5 9 8 9 9 7 6 5 4 6 7 6 7 5 5 7 4 2 4 0 2 2 1 1 3 1 1 2 1 4 3 2 3 1 2 2 1 2 0 2 3 3 2 1 3 2 3 3 2 1 3 1 9 11 6 4 7 8 5 2 5 4 3 3 4
27 25 19 13 13 15 13 10 10 10 10 9 5 4 6 6 6 8 9 7 4 3 4 4 7 8 8 8 7 6 5 3 4 6 5 6 4 3 5 5 2 4 2 2 2 1 2 1 1 2 3 0 3 2 2 4 1 5 6 4 1 1 2 3 2 3 1 3 2 4 3 2 2 2 3 9 10 4 3 6 7 6 5 4 5 6 4 5
26 22 17 14 13 12 9 9 10 8 7 6 4 5 7 6 6 8 8 8 5 5 5 4 4 6 7 7 7 5 6 3 4 6 4 4 5 2 3 4 4 3 2 4 2 1 2 1 3 3 1 3 4 4 3 4 2 1 4 4 1 5 2 3 4 4 5 2 1 3 3 2 1 4 3 6 10 4 1 6 7 6 6 4 6 7 4 4
26 22 15 13 13 9 7 7 8 6 6 5 5 7 7 7 8 6 4 6 4 4 7 6 4 7 6 6 6 4 5 5 5 5 3 6 8 3 1 2 4 1 2 3 1 0 2 2 2 2 4 2 4 6 5 4 4 3 2 2 3 5 3 3 3 3 5 3 2 2 3 2 1 1 2 4 10 5 3 6 7 7 7 4 5 6 3 2
27 21 14 15 13 7 6 6 6 6 6 5 6 7 7 8 11 8 3 5 4 2 6 6 5 7 6 6 7 6 7 6 4 4 5 6 5 1 1 2 1 2 5 4 1 1 2 4 1 2 3 5 3 6 5 2 4 4 4 3 2 1 2 2 1 1 2 4 2 1 4 2 1 2 1 1 7 5 3 6 6 6 6 4 5 5 4 5
22 15 13 17 11 5 6 5 5 6 5 5 7 8 8 10 12 8 3 4 5 4 6 4 5 7 7 6 6 9 9 6 4 5 6 5 1 1 2 2 4 2 4 3 2 2 1 3 2 2 2 4 1 6 3 2 2 2 3 4 3 1 2 3 1 2 3 3 1 1 4 2 1 3 2 2 5 4 3 5 6 5 5 5 6 5 7 6
15 9 7 7 7 6 5 5 5 6 5 6 7 6 8 11 12 8 4 5 7 5 5 6 4 5 7 8 5 9 10 7 6 5 4 4 2 1 2 2 5 6 2 4 5 0 2 1 2 3 3 3 2 3 1 2 2 1 2 2 2 2 3 3 2 3 4 3 2 2 3 2 2 3 4 5 8 6 3 4 4 5 4 5 6 6 7 8
9 7 3 4 7 6 5 4 5 6 6 7 8 7 8 11 12 10 5 4 7 5 4 7 6 5 8 11 7 5 9 8 9 7 3 4 4 4 3 2 2 3 4 2 5 3 0 1 1 3 2 1 2 2 3 4 3 2 3 3 3 4 3 1 1 3 4 3 4 3 2 4 3 3 6 7 6 6 6 5 3 4 5 4 4 4 3 7
7 6 2 5 5 5 6 4 5 5 7 7 8 11 10 7 8 8 5 6 7 7 6 8 7 6 7 9 8 6 7 7 8 5 3 6 6 4 4 4 3 2 2 3 4 0 0 1 2 4 3 2 2 2 4 5 5 5 4 3 2 3 4 3 2 4 6 4 4 3 3 4 3 4 6 7 5 4 5 9 7 4 4 3 5 4 2 5
6 5 2 7 6 5 5 5 6 5 7 7 9 12 6 4 7 7 2 5 8 8 7 7 7 7 7 8 7 6 3 4 6 4 3 4 3 3 6 7 1 2 2 6 4 4 3 2 3 4 4 3 1 3 1 3 4 4 3 3 3 2 2 3 4 4 5 5 4 3 2 3 2 3 4 4 4 6 3 8 9 5 4 4 4 5 4 4
5 6 4 7 8 5 5 6 6 7 7 9 12 13 5 1 8 9 7 7 7 7 8 7 7 7 8 8 7 7 5 5 6 6 5 3 5 8 8 7 2 1 3 6 4 4 2 1 3 5 4 2 1 3 2 1 2 3 1 3 4 4 3 3 4 3 3 4 4 4 4 3 2 4 4 5 3 2 4 6 7 6 5 3 3 4 4 5
5 7 7 6 7 6 7 6 6 7 8 10 13 12 7 5 7 9 9 9 6 7 8 7 8 8 8 9 9 9 7 4 5 8 8 2 7 7 5 5 2 3 2 2 4 3 2 2 3 4 4 3 2 1 3 1 2 1 1 2 2 3 4 2 2 2 2 5 6 4 3 2 3 6 4 5 2 1 5 7 5 6 5 1 3 4 2 4
5 5 6 7 8 7 7 7 7 8 8 10 11 11 9 6 7 9 11 10 8 8 8 7 8 9 9 9 8 8 9 6 6 7 8 3 4 6 4 4 1 2 4 8 7 4 3 3 3 4 4 3 2 2 2 1 4 1 2 5 2 3 5 5 4 4 2 6 7 4 3 4 5 7 4 6 4 4 7 7 4 7 7 3 4 4 3 5
3 3 5 6 7 8 6 8 9 9 8 8 8 9 9 8 8 9 10 11 10 9 8 7 8 10 10 9 8 8 11 10 6 4 5 6 4 4 5 4 3 2 9 10 4 4 4 5 6 6 6 6 5 5 2 5 6 2 3 7 4 2 2 3 3 5 4 5 5 3 4 6 6 7 6 7 5 6 5 6 4 5 8 5 5 5 4 4
3 4 4 3 3 7 7 8 9 9 9 8 6 6 8 9 8 8 9 9 9 9 8 7 8 9 9 9 8 8 10 10 7 6 8 9 4 4 7 3 3 7 7 3 2 2 3 6 7 8 9 9 9 9 9 10 7 2 5 9 5 2 3 1 1 5 6 5 4 4 7 7 7 7 6 7 6 5 4 5 4 5 6 6 7 6 5 5
3 5 5 4 3 6 6 7 10 12 13 11 7 7 9 10 9 8 7 7 8 9 6 6 9 11 9 8 8 6 8 9 9 11 11 9 5 3 5 2 3 9 4 4 4 2 3 6 6 9 12 11 10 11 12 12 9 5 7 10 7 7 7 2 4 6 5 4 5 7 8 7 6 6 5 7 6 5 4 4 3 4 4 4 7 6 4 7
3 5 6 6 7 8 8 9 10 12 14 13 8 8 10 10 9 9 7 6 7 9 8 7 9 11 11 11 9 7 7 8 8 9 10 9 8 6 4 4 5 8 3 6 3 3 1 5 5 9 11 10 10 12 12 12 12 9 8 10 11 11 8 6 6 3 1 5 7 8 8 6 4 5 5 6 4 4 3 3 3 6 6 6 9 8 3 2
2 3 4 6 7 8 9 9 9 9 10 11 8 9 11 11 11 10 9 7 7 7 9 9 9 10 12 13 12 10 9 9 9 9 8 6 6 6 4 1 3 4 2 6 2 5 1 4 6 8 8 8 10 13 13 14 14 11 10 11 10 9 10 9 6 3 3 5 6 6 8 5 3 4 4 4 3 2 2 4 6 10 10 8 8 8 2 2
6 5 4 5 5 7 8 8 7 7 7 8 8 8 9 11 12 11 10 11 11 8 7 10 11 10 10 12 13 13 11 11 11 10 9 7 7 6 4 2 4 4 3 4 2 3 3 4 5 6 6 6 9 12 14 16 15 13 12 11 8 7 9 9 7 5 5 4 3 5 5 1 2 3 3 4 3 2 3 5 7 9 8 7 6 6 4 5
8 6 4 4 6 6 7 7 8 7 6 7 9 10 10 11 13 13 9 10 11 10 9 10 7 4 7 10 11 12 12 11 11 9 9 9 8 8 8 8 7 5 3 4 3 3 4 3 4 6 5 6 9 11 12 12 10 8 7 9 9 9 9 9 8 7 5 4 3 2 3 3 2 2 3 4 3 2 3 6 7 7 7 8 10 10 10 11
Wind_Direction
14 13 13 13 12 9 8 6 4 360 355 350 346 342 341 348 354 349 346 342 337 339 339 337 320 303 287 268 259 256 256 260 272 260 241 246 291 328 303 290 284 280 282 279 276 272 276 288 283 160 295 22 49 290 40 18 268 75 49 76 63 108 205 357 92 128 161 132 124 131 121 113 119 126 120 112 103 103 104 97 95 90 86 92 96 110 131 148
11 10 11 11 10 8 7 6 3 360 355 349 343 341 340 345 351 348 344 336 333 331 329 332 326 317 298 280 271 268 271 267 260 251 239 258 321 321 298 299 290 286 283 277 280 288 307 305 315 65 29 21 101 258 153 58 56 83 80 77 34 160 148 152 127 133 151 123 116 110 93 100 125 125 108 111 111 111 108 106 108 103 102 106 106 126 130 75
8 8 8 8 8 6 5 4 3 0 355 349 342 339 337 341 348 346 339 331 330 326 324 324 321 321 315 306 293 290 289 265 255 253 48 21 329 321 311 306 295 295 285 276 287 308 335 318 346 79 35 305 68 26 88 88 62 86 94 89 259 245 112 123 123 125 138 121 115 111 105 110 121 127 132 130 120 112 113 119 122 115 116 122 120 125 107 75
5 5 5 6 6 5 3 2 1 360 355 349 341 334 332 336 343 342 335 330 329 327 326 321 320 328 333 326 313 330 279 260 258 45 38 359 339 318 307 308 298 296 281 276 289 307 330 325 337 117 169 28 58 343 129 131 104 127 120 107 217 171 92 91 100 115 133 116 106 111 115 112 112 126 136 129 118 105 109 114 115 118 120 122 120 116 102 84
2 4 3 3 4 3 1 359 359 359 355 350 341 332 326 328 337 338 332 328 328 326 325 321 323 333 345 332 308 170 263 276 70 67 20 359 355 317 314 318 295 295 280 279 302 313 324 333 320 9 142 121 162 217 137 101 67 121 125 128 165 108 89 88 94 111 123 110 106 108 107 111 118 116 111 116 110 102 105 108 113 117 117 116 116 111 98 83
359 1 1 1 1 1 360 357 357 357 356 351 343 332 319 321 331 330 327 326 324 323 324 323 322 332 349 323 268 209 261 353 66 55 19 7 356 321 313 301 287 293 276 268 275 301 316 330 288 325 79 125 149 118 87 101 107 126 115 121 116 95 92 95 99 103 107 105 107 111 110 117 117 107 105 103 100 106 110 112 116 117 118 121 118 108 96 86
357 358 359 360 359 359 358 356 355 355 357 352 345 334 312 315 324 323 324 322 322 323 325 321 316 325 347 340 189 214 250 6 62 44 21 356 332 323 294 281 272 262 266 267 240 283 331 288 255 31 25 38 39 47 54 103 130 114 93 99 92 95 98 97 97 96 96 100 108 118 118 119 115 110 110 102 104 114 114 116 119 122 125 123 116 109 102 95
354 355 357 358 357 357 356 355 353 354 356 352 347 331 308 310 315 317 320 319 322 324 324 319 315 323 341 2 228 240 244 54 64 51 16 349 325 302 284 276 263 246 255 283 281 270 354 296 35 43 35 79 77 68 50 65 105 86 89 96 90 94 97 98 98 98 98 101 116 124 117 114 116 117 115 111 116 119 121 127 125 127 125 117 116 116 105 92
351 352 354 356 356 355 354 353 351 352 354 353 347 329 306 300 304 311 316 320 321 323 323 313 314 326 331 287 256 269 59 61 75 66 349 320 291 270 253 261 266 254 271 326 325 31 56 328 36 42 36 72 68 75 77 72 83 86 99 97 98 99 99 106 104 101 101 101 114 115 110 112 115 115 112 117 124 126 133 135 134 136 125 120 121 113 101 96
349 350 351 353 354 353 353 351 349 350 353 353 347 327 300 284 295 304 311 320 322 323 319 311 317 327 318 278 266 297 54 62 108 76 320 278 294 310 284 289 317 334 350 357 360 27 52 25 30 10 36 66 51 74 90 129 81 82 95 95 100 104 103 104 102 103 103 103 110 112 116 122 125 124 116 125 133 137 141 141 151 145 128 130 124 113 111 118
347 348 349 351 352 352 352 350 348 347 350 353 348 325 295 271 280 297 310 319 322 322 314 309 315 322 308 281 278 32 43 299 100 75 315 300 358 20 16 350 357 10 4 12 26 19 37 68 32 332 15 51 70 83 88 97 87 92 102 103 102 107 111 107 107 111 110 111 116 123 129 128 124 120 126 139 145 148 146 150 168 150 129 139 139 137 135 125
346 347 347 349 350 352 350 349 347 345 348 351 347 323 289 259 269 292 308 314 321 319 311 308 313 323 308 283 316 61 31 341 31 248 298 24 40 32 8 15 23 15 9 26 38 19 11 40 312 11 46 20 40 75 91 87 77 86 90 109 118 123 120 114 122 126 122 117 114 124 131 124 112 116 131 145 153 156 148 153 175 151 129 151 162 136 116 107
344 345 346 347 349 351 349 348 345 343 346 347 345 322 283 252 261 285 302 309 317 311 307 307 309 317 305 302 65 55 296 58 41 238 86 45 51 53 22 28 43 23 16 30 38 32 5 352 352 70 76 85 84 71 96 79 48 35 15 32 136 139 121 120 135 130 119 112 115 147 141 118 117 128 140 151 158 159 153 158 172 152 136 164 167 108 106 126
343 344 344 346 347 349 349 347 344 342 343 343 339 314 278 250 258 277 292 300 304 304 306 305 305 307 286 290 81 69 223 168 226 212 83 337 17 78 58 29 52 45 26 35 42 46 36 24 22 40 61 49 70 92 104 71 42 27 349 317 187 168 118 132 146 129 120 122 126 146 136 123 132 143 149 154 160 166 163 159 163 157 150 160 141 108 128 138
343 344 344 344 346 348 349 346 344 342 341 339 330 305 273 252 263 276 282 291 292 296 305 304 298 285 259 201 109 113 180 205 235 63 37 254 259 68 61 42 60 55 34 46 56 54 37 37 29 30 44 30 35 89 77 37 44 71 305 226 193 205 132 142 148 141 138 141 145 146 117 130 140 152 158 156 158 172 171 153 155 161 157 153 147 143 138 125
344 344 343 343 345 348 347 345 345 340 339 337 320 291 265 257 269 276 278 284 283 288 298 296 275 244 255 70 116 177 201 199 31 44 340 281 59 64 71 90 83 59 47 54 60 54 34 36 43 52 47 22 28 47 328 316 230 219 263 257 222 202 148 143 145 160 154 145 157 160 94 126 137 152 162 156 159 175 169 147 150 157 160 154 148 148 131 144
346 345 343 343 345 348 346 344 344 339 338 337 319 280 263 266 270 276 278 275 277 282 273 272 277 260 250 157 157 191 178 84 29 229 25 47 70 125 169 131 88 51 31 1 25 61 46 35 29 42 37 352 285 99 19 302 269 242 227 226 204 167 143 143 144 157 157 152 163 158 155 133 133 154 164 155 164 179 163 145 147 154 165 160 149 149 146 181
348 346 343 343 345 347 344 342 342 338 338 338 325 283 273 272 272 279 278 273 272 275 265 259 276 284 219 197 212 139 70 44 1 254 56 71 126 177 149 98 126 122 69 325 319 78 70 84 88 5 3 323 233 131 81 236 249 316 250 213 132 150 168 156 145 152 154 153 171 164 163 142 134 154 164 157 170 179 159 143 148 156 163 163 154 153 158 184
350 347 344 342 344 346 344 342 338 338 338 339 332 299 289 274 272 273 264 264 254 254 278 252 239 266 93 148 178 88 74 20 327 222 244 247 161 179 137 114 177 163 110 258 285 116 147 156 138 341 260 236 226 197 175 207 209 30 291 263 118 149 153 124 131 158 144 119 220 207 153 142 142 155 162 165 171 170 153 142 151 155 155 167 164 160 163 170
352 348 343 341 343 345 344 340 336 338 334 334 335 310 279 256 243 241 241 245 241 248 282 286 251 284 317 117 123 128 166 194 219 221 209 211 198 226 209 151 163 264 184 139 331 191 172 167 159 176 216 187 215 218 174 152 67 46 327 313 40 103 104 109 122 148 120 108 231 223 162 148 148 155 166 169 164 166 161 153 163 159 159 180 172 164 163 165
353 349 344 341 342 342 342 338 335 337 329 327 322 286 284 331 262 271 266 239 236 245 270 278 294 306 295 317 347 327 228 199 198 193 100 187 203 212 246 172 137 267 184 119 340 296 101 37 199 94 61 50 356 333 64 49 27 47 4 325 358 70 97 109 114 121 108 181 213 208 165 151 148 157 163 163 161 172 171 162 174 169 165 180 175 167 159 161
353 350 344 340 341 341 340 336 333 337 335 327 298 254 16 14 345 313 306 268 247 241 253 262 280 285 244 256 287 278 264 235 191 160 117 225 227 194 237 164 127 256 202 137 137 358 345 189 65 64 67 52 354 356 43 33 2 34 358 300 340 49 82 107 112 113 103 305 88 57 275 145 139 151 154 165 168 171 174 166 172 169 165 179 177 163 151 154
352 350 344 340 340 339 337 331 324 328 331 331 325 356 2 356 342 318 285 278 270 232 222 229 237 245 213 205 209 216 259 267 202 147 120 243 244 233 272 191 135 239 227 159 141 150 267 82 58 59 71 62 23 358 8 16 36 71 57 300 333 69 89 120 123 128 143 162 115 173 234 125 126 147 151 170 170 161 174 168 163 163 169 188 179 156 154 161
351 350 345 341 339 337 336 321 299 299 303 312 5 21 354 342 344 333 305 277 279 234 215 218 221 246 241 107 173 231 269 308 352 117 119 243 268 314 288 221 231 265 199 55 49 74 70 68 59 57 57 48 53 18 334 335 110 127 119 273 287 108 106 100 94 119 171 145 140 186 202 123 130 151 144 155 170 158 163 165 160 159 165 177 169 158 166 165
350 349 344 342 340 336 331 312 299 328 304 296 7 11 349 345 348 339 331 270 270 227 200 205 205 247 288 70 192 244 279 257 258 72 112 293 306 330 321 275 302 340 52 54 11 6 64 79 79 45 19 26 62 52 314 333 44 83 155 187 245 52 61 45 67 45 340 93 135 191 157 132 137 151 129 136 172 151 144 171 163 153 157 159 158 157 158 151
348 348 343 342 343 338 330 312 331 328 307 322 15 356 342 347 348 337 317 253 259 206 174 175 172 198 211 204 205 231 267 214 163 68 100 327 314 289 314 304 275 8 54 79 353 277 116 121 110 29 8 52 55 232 227 348 48 77 120 167 183 72 64 3 38 54 332 36 52 23 336 136 122 39 42 55 177 143 137 184 166 153 157 158 163 157 147 144
345 347 342 339 346 344 335 322 329 321 314 9 4 343 341 346 341 327 275 257 252 198 167 153 160 186 187 196 211 232 292 129 143 167 175 153 278 252 273 281 252 71 83 92 337 300 122 131 115 37 356 87 142 261 79 19 51 69 40 41 47 82 100 54 47 53 328 359 12 343 312 83 79 1 35 38 349 95 108 187 173 165 161 164 167 153 149 145
343 345 340 336 343 342 321 313 320 323 356 1 343 337 342 336 324 298 254 267 238 174 169 145 128 187 200 200 225 261 315 112 206 183 136 113 274 279 291 297 6 54 41 13 332 8 40 3 82 81 324 81 81 39 65 61 59 55 31 41 56 67 90 100 86 99 190 140 344 308 303 68 57 336 49 56 3 360 9 353 327 188 157 151 159 143 142 143
341 343 338 333 338 342 329 320 303 304 340 342 335 337 331 322 311 261 249 267 213 170 182 148 142 195 218 218 210 245 262 218 219 141 141 199 204 256 302 341 353 354 20 36 224 62 50 12 29 115 236 39 51 47 75 82 75 54 23 29 78 66 36 66 80 22 123 112 94 343 331 68 81 7 50 58 28 14 355 352 340 304 159 121 123 136 134 138
337 339 336 331 334 344 332 309 274 286 323 331 329 325 313 304 272 228 225 258 231 172 148 146 196 198 203 222 208 218 241 227 211 189 210 219 183 204 240 345 310 300 308 317 77 88 105 112 327 95 48 37 38 25 60 81 78 60 25 3 71 93 42 48 71 46 20 68 87 83 52 60 102 103 122 184 139 113 73 319 4 316 302 107 117 149 138 137
334 335 333 326 323 320 310 293 290 318 322 327 326 313 290 260 230 227 211 249 267 171 156 176 203 192 193 218 219 203 223 231 208 201 221 215 194 204 197 186 233 283 324 303 38 111 178 180 156 73 47 30 32 12 52 90 83 70 38 17 28 86 95 57 40 25 44 67 68 62 50 45 48 78 87 172 168 149 166 172 142 260 271 95 107 156 137 136
332 331 327 319 310 296 281 288 330 328 319 325 321 297 257 214 218 244 221 226 243 171 186 201 187 192 199 217 231 207 210 223 202 205 237 233 214 210 200 189 258 301 94 328 8 333 292 24 75 115 92 263 296 343 79 90 76 338 250 126 85 19 103 84 45 15 350 46 52 37 51 45 17 342 38 111 155 166 165 156 165 212 237 88 94 112 117 139
331 327 322 314 299 286 280 290 308 311 316 318 305 263 244 223 217 237 226 220 195 157 223 211 179 195 205 211 235 221 206 214 197 198 229 251 252 243 219 194 323 308 186 61 16 308 308 20 338 239 102 163 282 306 41 48 101 208 249 149 118 83 62 77 92 102 307 286 237 166 140 94 12 293 78 103 122 153 174 160 158 165 124 99 108 101 97 124
329 325 320 312 293 285 282 281 284 298 311 303 277 228 234 240 233 233 235 232 193 170 251 226 180 192 210 223 229 208 200 213 195 187 207 245 251 269 236 172 112 279 250 63 31 276 290 330 272 346 54 16 300 350 358 341 93 170 212 227 211 37 81 78 77 124 145 288 226 160 130 110 57 29 100 108 113 138 195 155 137 117 111 107 101 104 106 112
330 326 319 306 291 286 282 265 263 283 295 279 254 227 220 234 236 227 242 244 202 183 227 229 197 195 204 234 248 226 209 205 209 205 202 234 217 207 242 155 129 260 279 64 51 270 311 29 92 58 34 286 328 13 325 316 358 198 221 212 353 7 59 107 50 88 146 208 189 133 74 75 38 6 14 116 118 122 182 144 144 129 118 105 98 108 120 143
332 328 313 284 269 265 257 244 237 248 269 261 239 230 220 229 239 230 257 270 237 187 201 194 217 231 203 209 238 231 209 211 228 222 205 244 239 212 254 110 111 247 337 34 278 248 331 309 100 155 221 236 2 339 324 346 339 310 331 61 39 18 46 117 79 97 154 130 60 107 88 91 151 29 303 138 129 153 182 136 131 114 108 97 104 127 137 110
332 328 310 281 265 232 209 219 220 230 254 254 238 243 238 235 248 260 298 307 325 287 229 193 190 233 225 204 205 187 192 203 201 212 210 234 258 256 319 352 90 292 355 15 314 39 336 287 192 187 207 111 59 287 284 342 323 331 9 5 339 34 44 71 119 148 151 105 58 63 97 103 141 107 295 162 130 159 164 119 111 109 117 116 116 140 123 74
322 314 297 277 259 191 184 210 225 236 246 247 245 254 257 249 257 274 307 308 305 278 256 237 183 215 230 225 195 168 179 193 179 223 223 187 167 285 250 212 151 156 356 348 256 146 124 284 294 320 359 94 182 268 249 213 254 7 354 316 321 349 349 355 20 3 16 79 99 87 99 87 30 103 169 193 134 128 120 138 144 131 149 160 149 148 122 110
303 292 293 253 201 168 182 200 228 247 240 235 240 245 254 257 264 282 310 300 288 268 257 262 228 223 246 251 218 163 175 204 200 218 232 168 152 240 260 235 141 122 102 269 277 261 121 17 321 305 346 45 300 281 303 251 207 137 310 308 4 352 340 353 347 352 1 23 33 59 101 61 29 101 124 140 141 136 139 168 143 124 176 194 153 150 153 160
297 288 300 142 152 162 169 194 235 244 231 232 241 242 244 248 250 253 241 250 275 265 250 258 242 233 258 267 269 196 184 211 217 208 194 171 176 187 182 239 256 95 96 236 284 317 334 58 285 274 311 346 277 285 6 347 338 10 355 11 21 359 2 11 312 351 356 12 26 12 38 53 35 32 44 68 113 134 146 156 122 124 190 207 139 150 180 161
304 290 243 141 146 167 174 219 237 228 234 237 241 246 253 270 262 242 200 204 251 262 262 275 271 257 253 257 268 243 192 206 234 237 205 183 188 204 142 125 232 276 52 239 242 223 189 303 305 297 303 277 269 21 6 353 351 344 340 2 36 25 4 345 10 16 357 12 50 5 1 47 4 349 38 52 42 39 116 142 148 154 165 148 135 144 80 116
282 275 205 145 155 188 211 245 240 228 240 238 238 241 248 328 286 269 235 205 232 250 251 261 270 271 260 248 260 272 230 209 228 238 251 219 171 119 101 100 162 278 307 278 291 55 62 350 312 293 285 276 113 91 26 348 332 302 310 2 3 33 39 357 6 16 348 356 30 343 356 89 275 312 67 80 28 6 53 131 146 149 118 97 112 127 108 113
249 272 256 166 165 206 240 254 252 244 240 241 247 246 237 260 255 259 266 239 224 233 236 235 243 252 264 267 271 272 256 234 229 221 226 218 98 97 107 103 89 272 258 273 315 27 37 284 277 285 296 289 137 126 122 59 298 267 304 357 332 353 47 41 2 358 344 347 1 343 3 92 267 326 70 100 94 40 34 80 113 115 98 87 98 122 140 141
279 290 274 200 181 219 244 245 252 252 242 240 246 251 258 263 251 250 255 245 225 224 230 235 238 236 246 258 267 273 266 241 228 235 238 195 100 106 114 95 85 266 276 346 8 4 319 245 240 269 284 256 224 158 131 129 293 310 354 303 293 354 8 44 345 313 357 357 355 348 1 63 337 331 31 81 83 111 69 61 78 101 102 76 78 107 124 109
300 286 273 244 216 221 240 244 255 270 268 255 248 247 251 254 250 252 259 261 248 233 232 234 239 241 240 242 255 272 272 252 221 238 261 274 115 133 128 92 135 265 36 51 28 339 303 292 279 268 277 284 323 7 82 290 301 359 317 294 295 324 342 31 356 312 4 1 346 348 2 10 342 324 7 68 35 7 60 78 80 97 108 92 66 84 79 81
296 271 271 253 218 213 239 253 258 272 284 281 269 253 245 246 245 239 245 260 260 249 247 240 236 241 239 237 240 245 255 261 255 247 257 254 229 161 130 133 163 83 53 57 35 319 295 291 290 283 293 307 311 314 242 219 244 229 252 273 269 256 302 60 359 314 340 337 320 352 360 344 335 332 2 59 51 2 42 100 105 97 117 126 109 106 95 89
279 272 270 272 228 218 228 239 243 249 256 263 275 266 249 247 248 230 214 232 254 255 253 247 239 243 242 237 238 238 246 254 249 245 255 260 255 120 116 154 156 99 66 58 186 226 269 270 273 273 274 273 273 281 269 250 257 313 308 299 302 264 269 90 92 299 308 302 306 354 348 330 332 345 12 50 43 358 23 66 54 68 108 130 131 138 151 162
240 260 273 318 298 241 236 245 243 239 237 238 251 266 260 248 242 232 204 210 241 245 241 245 245 248 249 239 238 244 248 247 232 227 239 256 262 130 127 215 158 124 130 237 197 158 269 269 278 282 278 278 284 287 287 287 291 295 295 299 293 272 270 242 212 247 275 301 313 333 337 331 336 352 41 60 23 342 17 48 50 85 104 118 121 125 163 178
253 268 281 308 295 273 286 298 284 257 236 228 232 245 255 254 243 242 228 212 232 236 230 235 241 246 249 243 241 238 235 248 258 246 237 236 240 228 200 198 157 135 172 249 206 92 327 278 294 293 285 287 287 279 279 285 284 276 278 281 277 280 283 268 249 243 4 329 313 328 336 333 342 352 32 62 22 330 27 54 43 61 53 51 81 77 20 215
275 302 308 312 296 282 286 293 300 287 246 228 229 233 243 249 246 249 245 223 219 231 237 240 238 241 248 248 247 240 224 228 250 267 277 274 261 265 279 264 174 150 210 249 200 102 102 287 313 310 297 295 290 285 283 283 281 278 272 266 267 283 294 293 301 348 358 316 321 338 327 324 10 358 3 55 44 333 62 69 46 48 36 20 59 86 69 252
268 303 334 321 297 289 283 268 270 284 263 236 231 230 240 250 248 251 256 244 230 220 232 247 247 244 246 250 253 249 239 233 234 241 254 263 265 266 274 274 234 205 214 240 191 128 183 268 301 290 278 282 283 282 282 284 287 284 280 283 287 291 294 295 305 319 308 294 325 327 309 318 66 328 327 31 41 35 65 64 59 62 54 20 29 70 61 28
261 281 305 292 277 283 288 272 251 251 258 255 245 233 233 249 255 253 261 266 251 230 228 245 260 269 251 247 256 264 263 255 249 248 243 241 246 243 234 236 240 232 223 222 209 215 243 271 279 264 266 276 271 270 277 288 293 287 299 321 320 308 300 290 288 297 280 217 183 270 254 167 156 298 336 18 16 36 62 59 59 60 58 43 31 35 37 29
Height
787 785 783 780 778 776 774 772 770 768 767 765 764 763 762 761 760 759 758 757 757 756 755 755 754 755 754 754 753 753 752 752 752 750 750 746 741 740 739 739 739 738 738 736 735 733 731 728 726 728 733 736 738 740 740 743 743 746 765 778 779 784 783 775 775 778 777 775 772 775 778 782 787 784 780 779 780 781 783 785 785 785 785 787 788 789 789 788
788 786 783 781 779 776 774 772 770 768 766 765 764 763 762 761 760 759 758 757 757 756 755 755 754 754 753 753 752 752 752 751 751 747 744 743 740 740 739 739 739 738 737 736 733 730 731 730 725 728 737 741 740 740 742 742 741 752 772 782 780 778 777 773 770 768 769 770 771 774 779 783 784 783 783 786 787 783 786 789 787 789 789 789 789 789 789 788
788 786 784 781 779 776 774 772 770 768 766 765 763 762 762 761 760 759 758 757 756 755 755 754 754 753 753 753 752 753 752 750 750 745 741 741 740 740 739 739 738 737 736 735 732 729 730 729 725 731 742 746 743 743 747 745 746 756 767 782 782 767 764 764 762 765 765 764 770 776 779 782 780 779 783 787 786 784 787 788 787 789 790 789 789 788 789 789
788 786 784 781 779 777 774 772 770 768 766 765 763 762 762 760 760 759 757 756 755 755 754 754 753 753 754 752 752 753 750 751 749 742 741 741 740 739 739 738 737 736 736 734 733 731 729 729 728 733 743 750 749 747 750 748 749 758 764 775 773 757 759 758 755 761 761 762 770 773 776 779 778 776 779 781 785 788 785 783 784 787 788 788 788 788 789 789
788 786 784 781 779 777 774 772 770 768 766 764 763 762 761 760 760 758 757 756 755 754 753 753 753 753 753 751 753 750 752 761 750 739 742 740 739 740 738 737 736 735 735 735 734 731 730 730 731 734 741 751 752 750 748 745 748 757 759 762 758 752 758 756 752 756 757 763 769 770 774 777 775 776 778 779 785 788 783 781 782 783 785 786 787 788 788 789
788 786 784 782 779 777 775 772 770 768 766 764 763 761 761 760 759 758 757 756 755 754 753 753 752 753 753 752 752 750 757 763 746 737 743 739 740 739 737 737 735 734 734 733 731 730 731 733 737 740 743 748 750 749 745 745 752 758 756 753 750 750 755 753 751 753 753 761 769 770 770 771 775 779 778 778 783 783 780 780 781 782 783 785 786 787 788 789
788 786 784 781 779 777 774 772 770 768 766 764 762 761 761 760 759 758 757 756 755 754 753 752 751 752 752 752 752 751 754 752 739 739 742 739 740 737 737 735 733 735 733 730 728 731 734 735 739 739 745 752 751 747 743 743 749 755 756 752 748 748 751 751 750 752 753 759 766 766 767 770 777 780 778 780 782 780 779 779 780 781 782 784 786 787 788 788
788 786 784 781 779 777 774 772 770 768 766 764 762 761 760 760 759 758 756 755 754 754 753 752 751 750 752 752 752 752 750 744 738 741 741 739 739 736 737 734 731 733 730 729 725 727 734 735 736 736 744 751 749 748 745 745 748 752 755 751 749 750 749 750 751 753 754 757 760 763 767 770 773 775 779 782 782 780 780 780 780 781 782 784 786 786 787 787
788 786 783 781 779 776 774 772 770 768 766 763 762 761 760 760 759 758 756 755 754 754 752 750 751 750 751 750 749 752 748 740 739 741 739 739 737 734 735 732 730 730 728 727 722 723 732 734 733 734 741 744 744 746 747 753 755 750 751 750 751 753 750 750 753 754 756 756 758 763 768 769 767 772 781 782 780 780 779 780 781 781 783 785 785 785 786 786
788 785 783 781 778 776 774 772 770 767 766 764 762 760 760 759 758 758 756 755 753 753 751 750 750 749 750 748 749 755 745 736 738 739 739 737 734 732 732 732 729 728 728 726 723 723 728 732 730 727 733 740 744 746 747 753 752 746 748 750 751 753 751 752 755 755 757 758 759 765 770 768 764 771 784 782 777 779 780 782 781 781 784 784 784 784 784 785
788 785 783 781 778 776 773 772 769 767 766 763 762 761 760 759 758 758 756 755 753 752 751 748 748 749 748 746 750 752 740 735 738 737 737 735 733 733 732 732 730 728 729 726 726 726 726 728 727 728 736 740 742 747 748 745 745 745 748 752 753 753 752 753 756 756 757 760 759 762 767 766 765 772 781 779 776 778 780 783 781 780 782 782 782 782 783 783
787 785 782 780 778 775 773 771 769 767 765 763 762 761 759 759 758 757 756 755 753 752 750 747 748 748 747 745 744 743 737 736 737 735 736 733 733 734 732 732 731 731 730 728 729 729 728 726 726 735 742 742 746 753 750 740 743 748 750 758 758 755 756 755 755 755 756 762 758 759 772 774 771 775 776 775 776 777 780 783 781 779 780 781 780 780 781 782
786 784 782 780 777 775 773 770 768 767 765 763 762 760 760 759 757 757 756 754 753 751 749 748 747 746 750 747 739 737 737 736 736 735 734 734 734 734 734 733 733 734 732 731 731 730 730 727 728 735 738 743 751 751 744 741 750 755 754 761 763 762 762 755 752 753 756 761 756 761 783 785 775 775 773 772 774 776 780 782 781 779 780 780 778 779 782 782
786 784 781 779 777 775 772 770 768 766 764 763 761 760 760 758 758 757 755 754 752 751 749 748 747 747 752 747 736 736 737 735 735 733 734 735 733 733 735 734 734 735 733 732 732 731 732 730 731 735 737 743 747 744 747 753 759 764 766 766 766 771 768 755 750 754 759 761 755 763 784 784 775 773 770 770 772 775 779 780 779 779 779 779 778 779 781 780
785 783 781 779 777 774 772 770 768 766 764 762 760 760 759 758 758 756 755 754 751 751 749 747 745 745 749 743 733 735 736 733 733 732 734 735 732 733 735 735 736 735 734 734 733 734 733 732 738 745 747 747 748 755 762 766 766 770 780 776 768 771 768 756 750 753 760 760 755 766 779 777 772 771 768 767 770 774 776 777 778 779 778 779 779 779 780 780
785 783 780 778 776 774 772 769 768 766 764 762 760 760 759 758 757 756 755 752 751 751 749 748 742 742 750 743 732 734 734 732 732 733 733 732 732 734 735 736 736 736 736 734 733 734 733 736 743 749 754 756 760 768 772 777 777 775 783 785 772 768 768 762 754 750 753 756 757 766 773 771 770 769 765 765 769 772 774 775 776 779 778 778 779 778 779 780
785 783 780 778 776 773 771 769 768 766 763 762 760 759 758 758 756 755 753 751 751 748 747 747 737 738 746 737 733 736 731 730 733 732 732 732 733 734 734 734 736 736 736 735 735 737 738 744 751 755 762 767 766 773 788 795 789 782 783 783 772 764 765 766 761 751 748 757 762 764 767 767 766 765 764 763 767 770 772 774 775 777 777 776 777 778 780 780
785 782 780 778 775 773 771 769 767 765 763 761 760 759 758 758 756 754 752 750 749 747 749 744 740 752 752 736 734 735 729 730 732 731 732 732 732 733 732 734 736 737 741 743 741 743 748 750 757 765 769 772 769 778 805 808 792 788 782 772 767 763 763 764 763 754 750 759 763 763 765 763 762 762 762 761 763 767 769 770 772 774 775 775 775 777 779 779
785 782 780 778 775 773 771 768 767 765 763 761 760 759 757 756 755 754 750 749 751 754 755 746 744 756 752 735 730 729 728 731 732 731 731 730 731 732 731 734 736 740 750 756 750 748 753 757 765 779 779 774 772 775 793 795 781 783 778 765 764 764 760 756 756 750 748 761 765 762 762 760 762 762 761 760 759 764 767 767 770 772 773 774 774 775 776 778
785 782 780 777 775 773 770 768 766 765 763 761 760 759 759 759 759 757 749 747 748 746 745 740 736 740 738 730 726 727 730 731 731 729 728 729 730 731 731 734 741 746 753 761 759 747 749 764 772 780 778 769 767 763 765 768 764 771 775 766 760 761 759 752 753 749 746 762 766 758 756 756 759 760 758 758 758 762 765 767 768 769 771 772 772 774 775 776
786 783 780 777 775 773 770 768 766 764 763 761 761 760 760 760 765 764 754 748 740 732 735 733 730 733 732 729 725 726 729 730 728 724 727 728 727 735 737 738 753 760 754 755 759 749 754 773 768 760 760 757 759 753 752 759 761 766 771 768 761 761 760 750 751 751 748 761 763 755 756 755 754 756 755 755 759 763 763 766 768 766 769 769 769 771 773 774
786 783 780 778 775 772 770 768 766 764 762 760 759 758 757 758 761 760 757 757 742 728 732 731 730 733 728 727 726 725 730 734 731 724 725 727 728 737 738 740 758 766 757 753 762 769 775 775 756 746 751 753 755 751 751 759 762 766 768 768 766 761 759 753 749 751 752 761 764 760 761 757 751 751 753 754 757 759 758 760 764 765 768 768 766 769 771 774
787 783 781 778 774 773 770 768 766 764 762 759 758 757 757 758 758 755 757 762 749 731 731 733 735 734 728 728 725 726 734 735 733 727 722 727 730 732 735 742 751 756 757 755 763 781 783 764 746 744 749 754 758 754 754 759 762 767 768 773 771 762 768 768 757 753 753 757 762 762 761 756 752 752 752 752 751 753 753 754 757 761 765 765 763 766 770 774
787 783 782 778 775 772 769 768 765 764 763 759 759 760 759 759 757 756 755 759 754 737 728 728 729 730 727 725 723 729 734 729 730 727 720 726 730 728 732 738 742 748 751 749 754 766 765 750 740 744 749 754 761 760 759 760 763 764 763 771 770 760 764 765 758 756 754 756 756 760 768 764 757 758 757 752 750 751 751 753 756 758 760 760 761 764 767 770
787 785 782 778 776 771 769 768 763 763 763 759 760 760 760 760 757 757 759 764 762 742 728 726 727 728 722 723 726 727 730 729 727 724 718 723 729 730 732 731 736 749 750 746 751 757 754 743 738 746 750 750 758 764 761 759 767 770 764 764 763 762 763 759 761 764 771 777 762 761 787 785 764 761 761 754 754 755 754 755 757 757 757 759 762 764 765 768
788 786 782 780 777 771 768 767 764 765 762 759 762 761 761 760 758 758 762 775 772 748 736 735 733 732 725 726 725 721 735 736 721 717 719 722 723 726 737 735 732 744 745 743 748 749 745 738 738 747 750 752 760 763 756 755 771 777 762 752 756 766 772 769 770 777 789 791 767 763 791 793 775 771 768 761 759 759 757 758 757 756 758 759 761 764 765 768
789 786 783 781 778 775 772 768 767 765 761 763 763 762 762 759 759 759 767 792 784 748 740 740 734 732 728 725 720 728 749 740 721 720 719 722 721 720 737 740 735 739 734 740 756 749 740 741 742 746 748 754 762 762 753 751 766 770 752 747 757 765 773 776 780 790 795 786 774 770 778 790 792 783 774 769 767 766 763 761 759 756 758 758 759 762 764 767
789 786 784 781 779 779 776 773 771 765 764 766 762 763 763 759 762 759 779 811 785 738 735 737 728 727 724 722 722 731 740 733 736 733 714 718 724 723 737 736 733 739 729 742 767 751 737 745 745 746 752 753 754 752 746 748 759 759 747 749 758 761 767 771 779 790 788 792 805 790 772 794 805 783 776 778 775 777 775 769 765 758 756 756 757 760 762 765
789 787 784 781 779 778 776 776 772 767 767 766 764 766 762 761 763 763 788 807 768 730 731 732 730 730 727 728 731 733 729 728 739 732 714 721 723 724 738 732 728 739 730 738 758 747 738 741 737 744 754 751 746 742 739 747 755 752 748 751 755 760 764 767 777 784 781 795 816 796 774 800 811 786 783 788 784 784 781 775 772 764 757 755 757 760 761 763
788 787 785 781 779 778 778 775 771 770 768 766 767 765 761 765 768 783 809 797 755 734 730 731 736 734 734 740 740 736 733 731 729 725 723 725 722 722 728 725 726 736 736 735 743 741 736 732 729 738 746 742 741 739 736 742 748 749 754 757 760 763 766 770 775 782 792 799 799 783 771 792 809 792 781 783 780 780 781 779 776 769 760 756 757 759 759 761
787 786 785 782 780 780 779 774 770 770 769 768 767 763 765 770 773 798 809 771 745 742 732 735 738 731 736 746 744 739 735 732 726 730 735 731 730 731 730 733 734 740 748 746 744 740 736 736 735 735 735 735 740 741 737 738 743 750 759 767 774 774 776 786 785 786 807 809 789 776 770 783 803 793 776 778 775 771 777 778 775 770 762 758 758 758 757 759
786 785 783 781 779 778 777 772 770 771 770 768 767 764 771 782 787 797 782 750 751 753 735 736 737 732 737 740 741 737 734 734 728 731 738 736 737 735 734 741 742 750 763 758 753 751 744 740 737 735 732 733 742 748 745 744 747 753 758 772 791 792 793 806 809 810 822 812 787 776 779 791 800 784 770 778 777 770 770 769 768 766 762 759 758 757 757 758
785 783 781 780 778 776 774 772 771 772 771 768 769 767 775 795 798 782 762 752 755 745 730 731 731 731 737 739 740 733 730 735 730 730 734 732 737 734 728 729 731 747 760 755 758 764 760 747 737 739 737 731 738 750 757 755 753 759 761 772 792 800 809 820 821 824 825 807 783 774 782 799 802 780 763 768 771 768 764 759 759 760 759 759 757 757 758 757
784 781 779 777 776 774 772 772 772 772 771 769 771 774 786 802 789 765 757 750 740 733 730 729 729 733 737 739 738 730 734 738 728 730 736 733 739 739 732 728 728 736 743 750 759 764 773 768 747 743 743 735 735 740 747 747 749 756 754 758 772 780 797 811 809 815 820 805 786 777 784 799 800 781 759 756 760 759 758 754 754 756 755 756 757 759 760 760
782 780 778 775 774 773 770 772 772 772 772 771 773 781 793 797 777 759 755 740 728 733 733 727 730 741 743 739 733 725 732 739 729 730 737 737 738 737 734 731 730 731 737 756 763 756 768 769 743 736 736 734 737 733 730 739 750 749 740 750 762 757 770 787 786 788 800 802 791 782 785 785 780 772 756 752 756 755 754 753 753 756 755 755 759 761 761 761
781 778 777 774 772 771 770 772 771 772 772 772 780 786 782 775 761 751 743 730 727 732 735 736 740 747 749 744 739 731 729 735 734 734 738 736 732 730 730 727 726 730 734 750 758 754 766 763 738 735 735 729 735 734 726 738 752 746 742 753 751 737 750 776 784 776 780 798 794 780 785 783 776 775 762 755 759 757 754 753 753 756 757 758 761 762 761 760
781 778 776 772 769 769 770 771 771 772 771 773 784 783 768 756 745 737 732 727 727 727 735 748 747 747 750 746 743 739 734 735 735 739 742 740 733 728 728 726 724 726 728 737 747 747 759 762 739 734 741 730 726 731 728 728 736 746 752 749 738 736 744 759 782 785 784 803 798 779 785 788 785 787 774 761 762 759 755 754 755 757 758 761 762 761 761 760
783 780 775 768 767 768 769 771 770 770 771 776 783 776 762 752 738 729 728 728 730 730 738 749 745 741 745 745 741 735 736 741 740 740 741 740 739 731 727 730 726 724 723 730 742 740 746 763 748 731 738 734 722 730 740 731 725 735 743 734 737 761 766 760 776 788 790 803 799 782 780 780 780 785 781 772 765 759 756 755 756 758 758 760 761 760 760 761
784 781 773 764 765 767 768 771 770 769 774 779 781 772 759 750 738 728 728 730 733 736 742 745 741 739 739 738 736 731 735 742 739 739 739 740 742 733 725 728 728 726 724 727 739 736 735 762 765 738 730 735 731 738 752 747 730 727 733 732 737 754 761 762 770 776 782 795 796 789 786 780 772 767 766 768 762 758 759 756 756 757 756 755 756 757 758 760
784 783 774 763 764 768 767 769 769 772 776 776 772 763 751 745 737 727 726 732 735 737 742 743 739 742 741 734 732 729 731 735 732 734 737 736 740 735 725 726 728 727 725 726 734 736 736 756 769 747 730 739 747 745 747 748 741 738 743 747 748 747 748 758 763 759 766 785 795 798 796 783 763 749 750 756 756 755 757 757 756 756 754 752 753 754 755 757
785 785 774 763 766 767 766 771 773 772 773 769 764 757 747 739 733 727 725 730 734 731 733 738 738 739 740 736 732 725 725 731 729 730 733 730 735 737 725 722 728 727 730 734 734 737 742 752 762 757 746 749 749 736 733 738 740 743 748 748 751 752 755 769 776 762 757 772 785 794 799 783 756 744 746 749 750 750 751 754 755 754 753 752 752 754 755 755
788 785 771 763 767 766 767 774 771 767 767 763 756 748 743 740 736 733 729 730 735 732 729 735 738 737 736 734 730 724 725 732 731 731 733 727 728 733 725 721 725 726 733 740 735 731 737 748 759 761 750 743 736 727 728 733 733 737 741 739 742 746 754 774 787 776 765 769 770 776 789 782 755 741 744 746 746 746 745 748 753 753 752 753 753 754 755 756
786 780 767 763 765 764 771 778 771 764 762 754 746 738 736 739 741 738 735 734 736 737 735 736 736 737 736 732 730 730 730 732 731 730 731 728 727 727 723 722 725 728 734 741 739 735 738 750 763 762 748 735 728 724 726 729 732 740 741 738 741 744 746 759 769 767 771 775 771 778 792 783 755 739 741 745 746 746 745 746 750 753 753 753 754 754 755 757
783 777 767 765 765 764 772 779 773 766 758 749 745 741 735 737 739 740 739 737 735 736 739 738 735 736 735 731 731 732 732 736 736 729 725 729 731 725 720 723 727 730 735 739 741 742 748 755 762 769 770 761 750 747 746 741 738 743 744 740 741 741 742 750 754 758 772 774 769 784 798 781 754 740 739 743 746 746 747 747 748 752 755 755 754 756 757 758
785 781 770 763 763 765 768 768 766 764 757 751 750 746 742 741 738 736 738 735 731 732 737 737 732 732 731 730 733 732 730 734 737 732 726 728 730 724 721 724 727 730 734 735 734 739 751 756 757 769 783 784 778 772 765 756 746 744 745 741 739 740 744 754 761 767 778 774 766 778 788 772 752 743 741 744 747 747 747 750 750 752 755 755 756 758 758 758
789 785 776 765 759 762 763 759 759 763 760 758 756 749 748 748 740 733 735 737 732 728 732 733 730 731 733 733 738 740 734 728 729 732 734 733 730 724 721 723 726 731 735 736 734 740 752 756 753 759 768 770 769 759 748 747 747 746 747 742 739 741 742 751 767 775 775 774 772 770 770 767 759 750 746 747 750 750 749 751 752 751 754 755 756 757 757 757
791 787 778 771 766 763 762 758 758 760 758 759 760 752 749 751 745 736 734 736 734 730 732 732 731 736 739 737 742 744 739 733 732 736 738 734 729 726 723 722 726 732 735 736 736 743 757 761 754 754 755 751 748 743 736 737 738 740 745 743 739 740 740 749 767 770 764 774 781 767 759 767 764 752 750 751 751 751 749 749 751 751 752 754 755 757 758 759
789 783 772 771 773 768 763 759 756 755 753 754 755 753 751 750 748 744 738 735 733 732 737 741 737 736 737 737 742 746 744 742 740 739 737 735 732 733 731 728 729 732 735 736 735 741 758 764 754 752 753 745 740 740 736 735 733 734 741 744 740 740 742 748 757 756 755 770 777 762 758 766 761 751 750 751 750 750 748 747 747 748 750 752 755 759 760 761
784 781 772 769 772 767 762 760 755 752 752 751 752 753 753 751 748 743 736 737 740 735 737 746 745 738 735 733 738 745 748 749 749 741 734 733 735 737 739 739 735 732 735 739 737 741 757 763 754 754 755 748 744 742 738 737 737 734 737 739 738 737 738 740 744 744 749 760 761 757 760 762 754 749 748 746 746 746 744 744 745 746 750 752 755 761 762 761
785 785 781 777 773 766 763 761 758 756 751 748 752 752 750 750 749 742 733 737 746 741 736 742 743 737 736 734 735 740 739 740 746 741 733 736 739 738 739 740 737 735 738 742 741 745 759 765 756 754 761 759 750 744 740 741 739 737 738 737 735 737 739 739 740 742 749 757 756 757 764 762 751 746 744 743 744 744 745 747 748 750 754 754 755 758 759 758
787 786 787 787 782 771 765 761 759 761 757 751 752 751 750 750 746 742 735 729 733 739 737 739 739 736 735 735 736 735 728 726 732 732 729 734 737 736 737 736 736 741 744 744 745 749 759 765 758 759 771 770 755 750 749 742 739 741 741 737 736 741 744 742 740 741 747 756 760 763 768 765 753 745 744 744 744 747 749 750 751 754 755 755 755 755 755 755
786 786 786 790 787 777 769 763 759 762 762 754 749 747 749 749 742 741 743 733 724 727 729 731 736 738 740 741 739 731 723 719 721 719 718 722 724 725 729 728 728 736 743 745 749 750 754 762 761 763 774 771 756 751 748 746 757 762 750 741 741 743 744 742 740 739 739 747 759 765 762 756 748 745 747 748 748 750 751 751 754 756 755 756 756 756 755 755